Showing default

GJZ 02, 62291

Orbit data source: Space-Track

GJZ 02, 62291 is a payload satellite owned by CASC (CN) in LEO that was launched on Thu, 12 Dec 2024 UTC via a CHANG ZHENG 2D/YZ-3 launch vehicle from the Jiuquan Satellite Launch Center, China (JSC). Payload-class satellites include a variety of spacecraft equipped with specific instruments for various scientific and technological missions. These include communications satellites like Starlink; space stations such as the ISS; scientific satellites like the Hubble; Earth observation satellites from companies like Planet Labs, Umbra, and HawkEye 360; GPS; miniature CubeSats for education and research; and military/defense satellites.

Loading next visibility...
Identifier
62291, 2024-238B
Orbit
LEO
Country
Flag of CNCN / PRC
Related business
Manufacturer
HITSAT
Mission
Operational Civil Communications
Bus & Motor
HARBFLAT, Unknown motor
Mass
~150 kg wet, ~150 kg dry
Launch date (UTC)
2024-12-12 (2 years ago)
Launch vehicle
CHANG ZHENG 2D/YZ-3
Launch site
Jiuquan Satellite Launch Center, China (JSC)
Object type
Payload
Rocket body
Debris
Shape & HBR
Box + 2 Pan, 1.5 m
Radar Cross Section
0.240 m², Large (>1 m²)

Expand to show TLE details & history
Last TLE update: 7 hours ago

TLE from 7 hours ago
0 GJZ 02
1 62291U 24238B   26171.54412669 -.00000069  00000-0  51870-4 0  9994
2 62291  59.9171 240.6181 0006871  92.2528 267.9266 13.75205922 76744
Epoch: 2026-06-20T13:03Z
TLE epoch observation values (Epoch: 2026-06-20T13:03:32.546Z)
Latitude
-0.00005°
Longitude
135.97523°
Altitude
982.612 km
Speed
7.361 km/s
True Right ascension
16h 02m 28s
True Declination
0° 00' 00"
Sunlit
Object was in full shadow at epoch
Visualization orbit readout
Latitude
Unknown
Longitude
Unknown
Altitude
Unknown
Speed
Unknown
Apparent Right ascension
Unknown
Apparent Declination
Unknown
Sunlit
N/A
Visualization observer readout
Local Sidereal Time
07:23:40
Azimuth
Unknown
Elevation
Unknown
Doppler factor
Unknown
Orbital elements
Apogee altitude
985.264 km
Perigee altitude
975.152 km
Semi-major axis
7,358.345 km
Eccentricity
0.00069
Inclination
59.9171°
RAAN
240.6181°
Arg. of periapsis
92.2528°
True anomaly
267.84792°
Mean anomaly
267.9266°
Eccentric anomaly
267.88726°
Mean motion
3.43853 °/min
Orbital period
104.7 mins
BSTAR
0.00005187
Loading maneuver chart data...
Computing Atmospheric mass density...
Loading historical data...
Loading historical data...
Loading historical data...
Loading historical data...
Loading historical data...
Loading historical data...
Loading historical data...
Other satellites on launch #238 in the year 2024 (2024-12-12 UTC)

Documentation

Showing up to 5 results
|